Location: Moulis
(42.9609°N, 1.0909°E)
Time: 22:55:16
(UTC+00:00)

Resurs 1-3 - Pass Details

Date: 11 December 2025
Orbit: 613 x 615 km, 97.7° (Epoch: 19 January)

Event Time Altitude Azimuth Distance (km) Brightness Sun altitude
Rises 18:04:48 0° 156° (SSE) 2,871 6.9 -18.2°
Reaches altitude 10° 18:06:59 10° 152° (SSE) 1,970 6.0 -18.6°
Maximum altitude 18:11:11 57° 74° (ENE) 726 3.5 -19.4°
Drops below altitude 10° 18:15:26 10° 356° (N) 1,986 6.1 -20.1°
Sets 18:17:39 0° 352° (N) 2,896 7.0 -20.5°
